Voltar ao catálogo

STARLINK-11479

AtivoComunicaçõesVLEO
NORAD 62270·PAYLOAD·🇺🇸 United States

Lançado Dec 8, 2024 de Cape Canaveral Space Force Station

Loading…

Próximas Passagens (próximas 24 horas)

TLE

AtualizadoSource: CelesTrak SupGP

Época: Sep 15, 2026, 02:57 UTC

1 62270C 24237D   26258.12340278 -.00069699  00000+0 -54157-3 0  2588
2 62270  43.0006 354.8025 0001819 260.1389 144.3144 15.70862709    14

Acompanhe STARLINK-11479 em tempo real com AllMySat

Download on the App Store